Terminal Aerodrome Forecast
Issued by NWS Aberdeen, SD

Home | Current Version | Previous Version | Text Only | Print | Product List | Glossary On
Versions: 1 2 3 4 5 6 7 8 9 10 11 12 13 14 15 16 17 18 19 20 21 22 23 24 25 26 27 28 29 30 31 32 33 34 35 36 37 38 39 40 41 42 43 44 45 46 47 48 49 50
899
FTUS43 KABR 140141 AAA
TAFABR
TAF AMD
KABR 140141Z 1402/1424 15024G29KT 2SM -SN BKN010 OVC045
     FM141200 17009KT 3SM -SN OVC015
     FM141400 20008KT P6SM VCSH OVC010
     FM141800 23008KT P6SM OVC030=

USA.gov is the U.S. government's official web portal to all federal, state and local government web resources and services.